Flag for Germany Weather past 2 weeks in Laatzen, Lower Saxony, Germany

Now
64 °F

Partly sunny.


Feels Like: 64 °F
Forecast: 51 / 65 °F
Wind: 9 mph from Northwest

Location: Hannover

Current Time: Jul 30, 2015 at 7:23:15 PM

Latest Report: Jul 30, 2015 at 7:00 PM


Visibility: 25 mi

Pressure: 29.94 "Hg

Humidity: 57%

Dew point: 48 °F

Location of LaatzenLocation

Historic Weather in Laatzen — Graph

°F

Laatzen temperature yesterday

Maximum temperature yesterday: 63 °F (at 12:00 PM)
Minimum temperature yesterday: 54 °F (at 7:00 AM)
Average temperature yesterday: 58 °F

Past Weeks' High & Low Weather Summary

 TemperatureHumidityPressure
High89 °F (Jul 17, 4:00 PM)97% (Jul 16, 4:00 AM)30.11 "Hg (Jul 16, 4:00 AM)
Low53 °F (Jul 26, 7:00 AM)34% (Jul 17, 4:00 PM)29.47 "Hg (Jul 25, 1:00 PM)
Average65 °F71%29.84 "Hg
* Reported Jul 15 6:00 PM — Jul 30 6:00 PM, Laatzen, Weather by CustomWeather, © 2015

Note: Actual official high and low records may vary slightly from our data, if they occured in-between our weather recording intervals... More about our weather records

Advertising

Laatzen weather history for previous 24 hours

 ConditionsComfort  
Time TempWeatherWind HumidityBarometerVisibility
6:00 PM
Thu, Jul 30
64 °FScattered clouds.9 mph52%29.93 "Hg25 mi
4:00 PM65 °FPartly sunny.9 mph47%29.90 "Hg25 mi
3:00 PM65 °FPartly sunny.10 mph48%29.90 "Hg19 mi
2:00 PM65 °FPartly sunny.12 mph49%29.89 "Hg19 mi
1:00 PM64 °FPartly sunny.9 mph54%29.88 "Hg19 mi
12:00 PM62 °FPartly sunny.10 mph61%29.88 "Hg19 mi
10:00 AM59 °FPartly sunny.10 mph69%29.86 "Hg19 mi
9:00 AM58 °FPartly sunny.9 mph74%29.85 "Hg19 mi
8:00 AM55 °FOvercast.8 mph81%29.83 "Hg19 mi
7:00 AM54 °FPartly sunny.7 mph83%29.82 "Hg19 mi
4:00 AM55 °FOvercast.7 mph77%29.80 "Hg19 mi
3:00 AM56 °FOvercast.8 mph76%29.79 "Hg19 mi
2:00 AM56 °FPassing clouds.7 mph75%29.78 "Hg19 mi
1:00 AM57 °FOvercast.9 mph73%29.78 "Hg19 mi
12:00 AM57 °FOvercast.9 mph73%29.77 "Hg25 mi
10:00 PM
Wed, Jul 29
57 °FSprinkles. Overcast.9 mph74%29.74 "Hg19 mi
9:00 PM56 °FOvercast.9 mph78%29.73 "Hg12 mi
8:00 PM57 °FSprinkles. Overcast.6 mph78%29.72 "Hg22 mi
7:00 PM55 °FOvercast.12 mph79%29.72 "Hg12 mi
Weather by CustomWeather, © 2015

See weather overviewHow to use our weather pages